Regional Weather Roundup
Issued by NWS

Home | Current Version | Previous Version | Graphics & Text | Print | Product List | Glossary On
Versions: 1 2 3 4 5 6 7 8 9 10 11 12 13 14 15 16 17 18 19 20 21 22 23 24 25 26 27 28 29 30 31 32 33 34 35 36 37 38 39 40 41 42 43 44 45 46 47 48 49 50
000
ASUS45 KCYS 021910
RWRWY

WYOMING REGIONAL WEATHER ROUNDUP
NATIONAL WEATHER SERVICE CHEYENNE WY
100 PM MDT SUN AUG 02 2015

NOTE:  "FAIR" INDICATES FEW OR NO CLOUDS BELOW 12,000 FEET
WITH NO SIGNIFICANT WEATHER AND/OR OBSTRUCTIONS TO VISIBILITY.

WYZ001-022000-
YELLOWSTONE NATIONAL PARK

CITY           SKY/WX    TMP DP  RH WIND       PRES   REMARKS
LK YELLOWSTONE   N/A     70  40  33 VRB3      30.34F
W YELLOWSTONE  NOT AVBL

$$
WYZ002>013-054>058-071-098>099-022000-
NORTHERN WYOMING

CITY           SKY/WX    TMP DP  RH WIND       PRES   REMARKS
JACKSON        SUNNY     77  39  25 CALM      30.21F
CODY           FAIR      82  45  26 NE14      30.11S
GREYBULL       FAIR      92  26   9 W6        29.99F
WORLAND        FAIR      91  31  11 VRB3      30.01F
SHERIDAN       FAIR      86  38  18 NW16G23   30.04S
BUFFALO        FAIR      87  41  19 N16G24    30.09S
GILLETTE       FAIR      89  41  18 N12       30.03S
HULETT         FAIR      81  50  34 E13       30.06S
NEWCASTLE      FAIR      91  34  13 S6        30.00F

$$
WYZ014>020-022>026-101>103-022000-
CENTRAL WYOMING

CITY           SKY/WX    TMP DP  RH WIND       PRES   REMARKS
BIG PINEY      FAIR      84  28  13 SW12      30.24F
PINEDALE       FAIR      82  27  13 N3        30.24F
DUBOIS         FAIR      81  25  12 E7        30.25S
LANDER         FAIR      89  31  12 N6        30.11F
RIVERTON       FAIR      87  36  16 E9        30.12F
CASPER         FAIR      92  21   7 VRB6      30.09F
DOUGLAS        FAIR      93  27   9 W6        30.05F

$$
WYZ021-027>030-104>119-022000-
SOUTHERN WYOMING

CITY           SKY/WX    TMP DP  RH WIND       PRES   REMARKS
EVANSTON       FAIR      84  29  13 NE8       30.21F
KEMMERER       FAIR      84  23  10 E8        30.24F
FORT BRIDGER   CLEAR     84  27  12 E6        30.24F
ROCK SPRINGS   FAIR      82  36  19 VRB3      30.19F
DIXON          FAIR      86  40  19 W5        30.20F
RAWLINS        FAIR      86  31  13 VRB3      30.21F
SARATOGA       FAIR      82  34  17 N5        30.22F
LARAMIE        FAIR      83  26  12 S6        30.23S
CHEYENNE       PTSUNNY   80  41  24 N3        30.16R
TORRINGTON     FAIR      91  58  32 SE12G18   29.99F HX  90
PINE BLUFFS    FAIR      91  41  17 E8        30.07F

$$



USA.gov is the U.S. government's official web portal to all federal, state and local government web resources and services.